DELTA 1 DEB, 10252

Orbit data source: Space-Track

DELTA 1 DEB, 10252 is space debris in LEO originally from a launch on Thu, 14 Jul 1977 UTC launched from the Air Force Eastern Test Range (AFETR). Debris objects in space refer to the collection of defunct objects orbiting the Earth. Examples of debris include non-operational satellites, rocket bodies, and fragments generated from explosions, collisions, or faulty payload assembly.

Loading next visibility...
Identifier
10252, 1977-065CD
Orbit
LEO
Country
Flag of USUS
Related business
Manufacturer
Unknown
Mission
Spacecraft
Bus & Motor
Unknown
Mass
Unknown
Launch date (UTC)
1977-07-14 (48 years ago)
Launch vehicle
Unknown
Launch site
Air Force Eastern Test Range (AFETR)
Object type
Payload
Rocket body
Debris
Shape & HBR
Unknown shape, 0.2 m
Radar Cross Section
Small (<0.1 m²)

Expand to show TLE details & history
Last TLE update: 17 hours ago

TLE from 17 hours ago
0 DELTA 1 DEB
1 10252U 77065CD  25297.14117833  .00004376  00000-0  18968-2 0  9992
2 10252  28.8458 248.4416 0757397 335.6436  21.0034 13.27068175308454
Epoch: 2025-10-24T03:23Z
TLE epoch observation values (Epoch: 2025-10-24T03:23:17.807Z)
Latitude
-0.00003°
Longitude
164.827°
Altitude
629.765 km
Speed
7.804 km/s
True Right ascension
16h 33m 45s
True Declination
0° 00' 00"
Sunlit
Object was in daylight at epoch
Visualization orbit readout
Latitude
Unknown
Longitude
Unknown
Altitude
Unknown
Speed
Unknown
Apparent Right ascension
Unknown
Apparent Declination
Unknown
Sunlit
N/A
Visualization observer readout
Local Sidereal Time
15:13:27
Azimuth
Unknown
Elevation
Unknown
Doppler factor
Unknown
Orbital elements
Apogee altitude
1,732.749 km
Perigee altitude
590.621 km
Semi-major axis
7,539.822 km
Eccentricity
0.07574
Inclination
28.8458°
RAAN
248.4416°
Arg. of periapsis
335.6436°
True anomaly
24.41246°
Mean anomaly
21.0034°
Eccentric anomaly
22.67642°
Mean motion
3.31514 °/min
Orbital period
108.59 mins
BSTAR
0.0018968
Loading maneuver chart data...
Computing Atmospheric mass density...
Loading historical data...
Loading historical data...
Loading historical data...
Loading historical data...
Loading historical data...
Loading historical data...
Loading historical data...

Documentation

Showing up to 5 results
|